This is the latest recevied weather packets stored in our database for station/object OE3XOC-11. If no packets are shown the sender has not sent any weather packets the latest 10 day(s).
| Time | Temp. | Humidity | Pressure | Rain* | Wind** | Luminosity | Snow |
|---|---|---|---|---|---|---|---|
| 1777171330 | 12.22° C | 42% | 960.9 hPa | - | - | - | - |
| 1777171030 | 12.78° C | 42% | 960.8 hPa | - | - | - | - |
| 1777170730 | 12.78° C | 41% | 960.6 hPa | - | - | - | - |
| 1777170430 | 12.22° C | 42% | 960.6 hPa | - | - | - | - |
| 1777170130 | 12.78° C | 41% | 960.4 hPa | - | - | - | - |
| 1777169830 | 12.22° C | 43% | 960.4 hPa | - | - | - | - |
| 1777169530 | 12.78° C | 42% | 960.3 hPa | - | - | - | - |
| 1777169230 | 12.78° C | 42% | 960.1 hPa | - | - | - | - |
| 1777168930 | 12.78° C | 42% | 960.1 hPa | - | - | - | - |
| 1777168630 | 12.78° C | 41% | 959.9 hPa | - | - | - | - |
| 1777168330 | 13.33° C | 41% | 959.9 hPa | - | - | - | - |
| 1777168030 | 13.33° C | 41% | 960 hPa | - | - | - | - |
| 1777167730 | 13.33° C | 40% | 960.1 hPa | - | - | - | - |
| 1777167430 | 13.33° C | 39% | 960 hPa | - | - | - | - |
| 1777167130 | 13.89° C | 38% | 960 hPa | - | - | - | - |
| 1777166830 | 13.33° C | 39% | 959.8 hPa | - | - | - | - |
| 1777166530 | 13.33° C | 40% | 959.9 hPa | - | - | - | - |
| 1777166230 | 13.33° C | 40% | 959.8 hPa | - | - | - | - |
| 1777165930 | 13.33° C | 39% | 959.7 hPa | - | - | - | - |
| 1777165630 | 13.33° C | 40% | 959.7 hPa | - | - | - | - |
| 1777165330 | 13.33° C | 39% | 959.6 hPa | - | - | - | - |
| 1777165030 | 13.89° C | 38% | 959.4 hPa | - | - | - | - |
| 1777164730 | 13.89° C | 39% | 959.4 hPa | - | - | - | - |
| 1777164430 | 13.89° C | 38% | 959.4 hPa | - | - | - | - |
| 1777164130 | 13.89° C | 38% | 959.4 hPa | - | - | - | - |
* Rain since midnight (hover to see other rain measurements)
** Current wind speed in m/s (hover to see current wind gust speed)